sat.trackr.live / text

‹ back to catalog

KUIPER-00149

NORAD 65968 · 2025-228X

PAYLOAD ACTIVE UNKNOWN

§ Identity

Operator
Country
US
Launch date
2025-10-14
Launch site
AFETR
Launch vehicle
Mass (kg)
RCS (m²)

External: N2YO · Heavens-Above · Gunter

§ Orbital elements

Epoch: 2026-05-24T23:52:11.114976Z

Period
97.30 min
Inclination
51.9006°
Eccentricity
0.0000836
Mean motion
14.79933299 rev/d
Perigee alt
628.9 km
Apogee alt
630.1 km
Semi-major
7,007.7 km
B*
5.1295e-5
RAAN
0.6888°
Arg perigee
110.6940°
Mean anomaly
249.4112°
Rev number
3,484

§ Raw data

KUIPER-001491 65968U 25228X   26144.99457309  .00000170  00000+0  51295-4 0  99992 65968  51.9006   0.6888 0000836 110.6940 249.4112 14.79933299 34843

JSON: /api/v1/satellites/65968 · /tle

For live sub-satellite position, see the globe view (requires WebGL).

§ Visibility from observer

Set your observer location to see the next 7 days of passes ≥ 10°. The values pass through the URL so the page stays shareable.

No JS? Fill the form by hand. The geolocation button needs JavaScript.